Flag for Germany Weather past 2 weeks in Pinneberg, Schleswig-Holstein, Germany

Now
46 °F

Light rain. More clouds than sun.


Feels Like: 41 °F
Forecast: 41 / 45 °F
Wind: 13 mph from Southwest

Location: Hamburg-Fuhlsbuettel

Current Time: Mar 29, 2015 at 3:51:40 PM

Latest Report: Mar 29, 2015 at 3:20 PM


Visibility: N/A

Pressure: 29.33 "Hg

Humidity: 93%

Dew point: 45 °F

Location of PinnebergLocation

Historic Weather in Pinneberg — Graph

°F

Pinneberg temperature yesterday

Maximum temperature yesterday: 50 °F (at 2:20 PM)
Minimum temperature yesterday: 41 °F (at 1:50 AM)
Average temperature yesterday: 45 °F

Past Weeks' High & Low Weather Summary

 TemperatureHumidityPressure
High59 °F (Mar 17, 2:50 PM)100% (Mar 20, 6:20 AM)30.48 "Hg (Mar 20, 6:20 AM)
Low28 °F (Mar 20, 6:20 AM)27% (Mar 19, 2:50 PM)29.36 "Hg (Mar 29, 2:20 PM)
Average44 °F74%30.09 "Hg
* Reported Mar 14 1:20 PM — Mar 29 2:20 PM, Pinneberg, Weather by CustomWeather, © 2015

Note: Actual official high and low records may vary slightly from our data, if they occured in-between our weather recording intervals... More about our weather records

Advertising

Pinneberg weather history for previous 24 hours

 ConditionsComfort  
Time TempWeatherWind HumidityBarometerVisibility
2:20 PM
Sun, Mar 29
48 °FMore clouds than sun.10 mph82%29.36 "HgN/A
1:50 PM46 °FLight rain. Cloudy.13 mph93%29.39 "HgN/A
1:20 PM50 °FPartly sunny.16 mph82%29.39 "HgN/A
12:50 PM50 °FPartly sunny.14 mph82%29.42 "HgN/A
12:20 PM48 °FBroken clouds.15 mph87%29.42 "HgN/A
11:50 AM46 °FDrizzle. Partly sunny.18 mph93%29.45 "Hg4 mi
11:20 AM48 °FLight rain. Partly sunny.15 mph94%29.45 "HgN/A
10:50 AM48 °FLight rain. Partly sunny.17 mph94%29.45 "HgN/A
10:20 AM48 °FDrizzle. Partly sunny.14 mph94%29.45 "Hg4 mi
9:50 AM48 °FLight rain. Partly sunny.13 mph94%29.45 "HgN/A
9:20 AM48 °FPartly sunny.12 mph87%29.47 "HgN/A
8:50 AM48 °FLight rain. Partly sunny.12 mph87%29.47 "HgN/A
8:20 AM48 °FLight rain. Partly sunny.9 mph94%29.47 "HgN/A
7:50 AM48 °FLight rain. Passing clouds.10 mph94%29.47 "HgN/A
7:20 AM48 °FLight rain. Partly cloudy.20 mph94%29.47 "Hg4 mi
6:50 AM50 °FLight rain. Partly cloudy.17 mph94%29.47 "Hg5 mi
6:20 AM50 °FLight rain. Passing clouds.17 mph94%29.47 "Hg6 mi
5:50 AM50 °FLight rain. Partly cloudy.15 mph94%29.47 "Hg6 mi
5:20 AM50 °FLight rain. Passing clouds.13 mph94%29.50 "Hg5 mi
4:50 AM50 °FRain. Fog.15 mph100%29.50 "Hg3 mi
4:20 AM50 °FLight rain. Fog.16 mph94%29.50 "Hg2 mi
3:50 AM50 °FLight rain. Fog.15 mph94%29.53 "Hg2 mi
3:20 AM50 °FLight rain. Fog.16 mph94%29.53 "Hg2 mi
1:50 AM50 °FLight rain. Fog.16 mph94%29.56 "Hg2 mi
1:20 AM50 °FLight rain. Fog.15 mph94%29.59 "Hg3 mi
12:50 AM50 °FLight rain. Low clouds.20 mph94%29.59 "Hg3 mi
12:20 AM48 °FLow clouds.16 mph94%29.62 "Hg4 mi
11:50 PM
Sat, Mar 28
48 °FLow clouds.13 mph94%29.62 "Hg4 mi
11:20 PM48 °FLow clouds.15 mph94%29.65 "Hg4 mi
10:50 PM48 °FLight rain. Low clouds.13 mph87%29.68 "Hg4 mi
10:20 PM46 °FLight rain. Low clouds.15 mph93%29.68 "Hg4 mi
9:50 PM46 °FLow clouds.16 mph93%29.71 "Hg5 mi
9:20 PM46 °FLow clouds.17 mph87%29.74 "Hg5 mi
8:50 PM46 °FLight rain. Passing clouds.15 mph87%29.74 "Hg5 mi
8:20 PM46 °FLight rain. Passing clouds.16 mph87%29.77 "HgN/A
7:50 PM48 °FLight rain. Passing clouds.15 mph76%29.77 "HgN/A
7:20 PM48 °FPassing clouds.17 mph71%29.80 "HgN/A
6:50 PM48 °FLight rain. Overcast.15 mph71%29.80 "HgN/A
6:20 PM48 °FLight rain. More clouds than sun.17 mph71%29.83 "HgN/A
5:50 PM48 °FLight rain. More clouds than sun.16 mph71%29.83 "HgN/A
5:20 PM48 °FLight rain. More clouds than sun.14 mph66%29.86 "HgN/A
4:50 PM50 °FLight rain. More clouds than sun.14 mph58%29.86 "HgN/A
4:20 PM50 °FMore clouds than sun.14 mph54%29.89 "HgN/A
3:50 PM50 °FBroken clouds.17 mph50%29.92 "HgN/A
3:20 PM50 °FPartly sunny.16 mph50%29.92 "HgN/A
Weather by CustomWeather, © 2015

See weather overviewHow to use our weather pages